| time (UTC) | temp C | wind direction | speed KPH | gust KPH | rain 1hr cm | rain 24hr cm | rain mn cm | humidity % | barometer mb |
| 20260507212632 | 11 | 117 | 1.6 | 1.6 | 0.00 | 0.00 | 0.00 | 96 | |
| 20260507212132 | 11 | 173 | 1.6 | 1.6 | 0.00 | 0.00 | 0.00 | 96 | |
| 20260507211631 | 11 | 167 | 1.6 | 1.6 | 0.00 | 0.00 | 0.00 | 96 | |
| 20260507211130 | 11 | 139 | 0.0 | 0.0 | 0.00 | 0.00 | 0.00 | 96 | |
| 20260507210630 | 11 | 159 | 0.0 | 1.6 | 0.00 | 0.00 | 0.00 | 96 | |
| 20260507210129 | 11 | 128 | 1.6 | 1.6 | 0.00 | 0.00 | 0.00 | 94 | |
| 20260507205628 | 11 | 128 | 1.6 | 1.6 | 0.00 | 0.00 | 0.00 | 94 | |
| 20260507205122 | 11 | 128 | 1.6 | 1.6 | 0.00 | 0.00 | 0.00 | 94 | |
| 20260507204622 | 11 | 128 | 1.6 | 1.6 | 0.00 | 0.00 | 0.00 | 94 | |
| 20260507204121 | 11 | 128 | 1.6 | 1.6 | 0.00 | 0.00 | 0.00 | 94 | |
| 20260507203620 | 11 | 128 | 1.6 | 1.6 | 0.00 | 0.00 | 0.00 | 94 | |
| 20260507203120 | 11 | 128 | 1.6 | 1.6 | 0.00 | 0.00 | 0.00 | 94 | |
| 20260507202619 | 11 | 128 | 1.6 | 1.6 | 0.00 | 0.00 | 0.00 | 94 | |
| 20260507202118 | 11 | 128 | 1.6 | 1.6 | 0.00 | 0.00 | 0.00 | 94 | |
| 20260507201618 | 11 | 128 | 1.6 | 1.6 | 0.00 | 0.00 | 0.00 | 94 | |
| 20260507201117 | 11 | 128 | 1.6 | 1.6 | 0.00 | 0.00 | 0.00 | 94 | |
| 20260507200616 | 11 | 128 | 1.6 | 1.6 | 0.00 | 0.00 | 0.00 | 94 | |
| 20260507200116 | 11 | 128 | 1.6 | 1.6 | 0.00 | 0.00 | 0.00 | 94 | |
| 20260507195615 | 11 | 128 | 1.6 | 1.6 | 0.00 | 0.00 | 0.00 | 94 | |
| 20260507195114 | 11 | 128 | 1.6 | 1.6 | 0.00 | 0.00 | 0.00 | 94 | |
| 20260507194613 | 11 | 128 | 1.6 | 1.6 | 0.00 | 0.00 | 0.00 | 94 | |
| 20260507194113 | 11 | 128 | 1.6 | 1.6 | 0.00 | 0.00 | 0.00 | 94 | |
| 20260507193612 | 11 | 128 | 1.6 | 1.6 | 0.00 | 0.00 | 0.00 | 94 | |
| 20260507193111 | 11 | 128 | 1.6 | 1.6 | 0.00 | 0.00 | 0.00 | 94 | |
| 20260507192610 | 11 | 128 | 1.6 | 1.6 | 0.00 | 0.00 | 0.00 | 94 | |
| 20260507192110 | 11 | 128 | 1.6 | 1.6 | 0.00 | 0.00 | 0.00 | 94 | |
| 20260507191609 | 11 | 128 | 1.6 | 1.6 | 0.00 | 0.00 | 0.00 | 94 | |
| 20260507191108 | 11 | 85 | 0.0 | 1.6 | 0.00 | 0.00 | 0.00 | 94 | |
| 20260507190607 | 11 | 148 | 1.6 | 3.2 | 0.00 | 0.00 | 0.00 | 94 | |
| 20260507190107 | 11 | 103 | 0.0 | 0.0 | 0.00 | 0.00 | 0.00 | 93 | |
| 20260507185606 | 11 | 136 | 0.0 | 0.0 | 0.00 | 0.00 | 0.00 | 93 | |
| 20260507185105 | 11 | 127 | 0.0 | 1.6 | 0.00 | 0.00 | 0.00 | 93 | |
| 20260507184605 | 11 | 91 | 0.0 | 0.0 | 0.00 | 0.00 | 0.00 | 92 | |
| 20260507184104 | 11 | 143 | 0.0 | 1.6 | 0.00 | 0.00 | 0.00 | 92 | |
| 20260507183603 | 11 | 44 | 0.0 | 1.6 | 0.00 | 0.00 | 0.00 | 92 | |
| 20260507183103 | 11 | 34 | 1.6 | 1.6 | 0.00 | 0.00 | 0.00 | 92 | |
| 20260507182602 | 11 | 77 | 1.6 | 1.6 | 0.00 | 0.00 | 0.00 | 92 | |
| 20260507182101 | 11 | 113 | 0.0 | 0.0 | 0.00 | 0.00 | 0.00 | 92 | |
| 20260507181600 | 11 | 99 | 0.0 | 0.0 | 0.00 | 0.00 | 0.00 | 93 | |
| 20260507181100 | 11 | 81 | 0.0 | 1.6 | 0.00 | 0.00 | 0.00 | 93 | |
| 20260507180559 | 11 | 153 | 1.6 | 1.6 | 0.00 | 0.00 | 0.00 | 92 | |
| 20260507180058 | 11 | 90 | 0.0 | 0.0 | 0.00 | 0.00 | 0.00 | 92 | |
| 20260507175557 | 11 | 121 | 0.0 | 1.6 | 0.00 | 0.00 | 0.00 | 92 | |
| 20260507175057 | 11 | 112 | 0.0 | 0.0 | 0.00 | 0.00 | 0.00 | 91 | |
| 20260507174556 | 11 | 105 | 0.0 | 0.0 | 0.00 | 0.00 | 0.00 | 91 | |
| 20260507174055 | 11 | 108 | 0.0 | 0.0 | 0.00 | 0.00 | 0.00 | 91 | |
| 20260507173555 | 11 | 133 | 1.6 | 1.6 | 0.00 | 0.00 | 0.00 | 91 | |
| 20260507173049 | 11 | 135 | 1.6 | 0.0 | 0.00 | 0.00 | 0.00 | 91 | |
| 20260507172548 | 11 | 103 | 0.0 | 0.0 | 0.00 | 0.00 | 0.00 | 90 | |
| 20260507172047 | 11 | 134 | 1.6 | 1.6 | 0.00 | 0.00 | 0.00 | 89 | |
| 20260507171546 | 11 | 119 | 0.0 | 1.6 | 0.00 | 0.00 | 0.00 | 89 | |
| 20260507171046 | 11 | 106 | 1.6 | 3.2 | 0.00 | 0.00 | 0.00 | 88 | |
| 20260507170545 | 12 | 136 | 0.0 | 3.2 | 0.00 | 0.00 | 0.00 | 87 | |
| 20260507165543 | 12 | 136 | 0.0 | 3.2 | 0.00 | 0.00 | 0.00 | 87 | |
| 20260507165043 | 12 | 177 | 1.6 | 3.2 | 0.00 | 0.00 | 0.00 | 87 | |
| 20260507164542 | 12 | 156 | 1.6 | 1.6 | 0.00 | 0.00 | 0.00 | 86 | |
| 20260507164041 | 12 | 129 | 0.0 | 0.0 | 0.00 | 0.00 | 0.00 | 87 | |
| 20260507163541 | 12 | 134 | 1.6 | 1.6 | 0.00 | 0.00 | 0.00 | 86 | |
| 20260507163040 | 12 | 158 | 1.6 | 3.2 | 0.00 | 0.00 | 0.00 | 85 | |
| 20260507162539 | 12 | 148 | 3.2 | 3.2 | 0.00 | 0.00 | 0.00 | 85 | |
| 20260507162038 | 12 | 152 | 1.6 | 3.2 | 0.00 | 0.00 | 0.00 | 85 | |
| 20260507161539 | 12 | 171 | 1.6 | 1.6 | 0.00 | 0.00 | 0.00 | 84 | |
| 20260507161037 | 12 | 170 | 6.4 | 9.7 | 0.00 | 0.00 | 0.00 | 84 | |
| 20260507160536 | 13 | 198 | 3.2 | 3.2 | 0.00 | 0.00 | 0.00 | 83 | |
| 20260507160036 | 13 | 160 | 3.2 | 4.8 | 0.00 | 0.00 | 0.00 | 84 | |
| 20260507155535 | 13 | 108 | 6.4 | 8.0 | 0.00 | 0.00 | 0.00 | 82 | |
| 20260507155029 | 13 | 152 | 3.2 | 4.8 | 0.00 | 0.00 | 0.00 | 82 | |
| 20260507154529 | 13 | 182 | 1.6 | 3.2 | 0.00 | 0.00 | 0.00 | 82 | |
| 20260507154028 | 13 | 91 | 4.8 | 6.4 | 0.00 | 0.00 | 0.00 | 81 | |
| 20260507153527 | 13 | 106 | 4.8 | 8.0 | 0.00 | 0.00 | 0.00 | 81 | |
| 20260507153026 | 13 | 101 | 3.2 | 3.2 | 0.00 | 0.00 | 0.00 | 80 | |
| 20260507152525 | 14 | 199 | 3.2 | 4.8 | 0.00 | 0.00 | 0.00 | 78 | |
| 20260507152024 | 14 | 49 | 3.2 | 4.8 | 0.00 | 0.00 | 0.00 | 80 | |
| 20260507151523 | 13 | 144 | 4.8 | 6.4 | 0.00 | 0.00 | 0.00 | 81 | |
| 20260507151023 | 13 | 148 | 3.2 | 3.2 | 0.00 | 0.00 | 0.00 | 80 | |
| 20260507150522 | 13 | 148 | 3.2 | 3.2 | 0.00 | 0.00 | 0.00 | 80 | |
| 20260507150022 | 14 | 183 | 6.4 | 8.0 | 0.00 | 0.00 | 0.00 | 77 | |
| 20260507145521 | 14 | 183 | 6.4 | 8.0 | 0.00 | 0.00 | 0.00 | 77 | |
| 20260507145020 | 14 | 183 | 6.4 | 8.0 | 0.00 | 0.00 | 0.00 | 77 | |
| 20260507144519 | 14 | 183 | 6.4 | 8.0 | 0.00 | 0.00 | 0.00 | 77 | |
| 20260507144019 | 15 | 152 | 3.2 | 3.2 | 0.00 | 0.00 | 0.00 | 74 | |
| 20260507143518 | 15 | 129 | 3.2 | 4.8 | 0.00 | 0.00 | 0.00 | 73 | |
| 20260507143017 | 15 | 159 | 1.6 | 1.6 | 0.00 | 0.00 | 0.00 | 73 | |
| 20260507142516 | 15 | 111 | 1.6 | 4.8 | 0.00 | 0.00 | 0.00 | 76 | |
| 20260507142016 | 15 | 215 | 4.8 | 8.0 | 0.00 | 0.00 | 0.00 | 74 | |
| 20260507141515 | 15 | 215 | 4.8 | 8.0 | 0.00 | 0.00 | 0.00 | 74 | |
| 20260507141014 | 15 | 215 | 4.8 | 8.0 | 0.00 | 0.00 | 0.00 | 74 | |
| 20260507140514 | 15 | 124 | 4.8 | 8.0 | 0.00 | 0.00 | 0.00 | 71 | |
| 20260507140013 | 16 | 164 | 1.6 | 3.2 | 0.00 | 0.00 | 0.00 | 70 | |
| 20260507135512 | 16 | 161 | 3.2 | 6.4 | 0.00 | 0.00 | 0.00 | 70 | |
| 20260507135011 | 15 | 161 | 3.2 | 3.2 | 0.00 | 0.00 | 0.00 | 72 | |
| 20260507134510 | 15 | 161 | 3.2 | 3.2 | 0.00 | 0.00 | 0.00 | 72 | |
| 20260507134010 | 15 | 161 | 3.2 | 3.2 | 0.00 | 0.00 | 0.00 | 72 | |
| 20260507133509 | 15 | 145 | 6.4 | 9.7 | 0.00 | 0.00 | 0.00 | 73 | |
| 20260507133008 | 15 | 173 | 1.6 | 6.4 | 0.00 | 0.00 | 0.00 | 72 | |
| 20260507132507 | 16 | 178 | 1.6 | 4.8 | 0.00 | 0.00 | 0.00 | 70 | |
| 20260507132006 | 16 | 201 | 3.2 | 3.2 | 0.00 | 0.00 | 0.00 | 71 | |
| 20260507131506 | 15 | 180 | 8.0 | 8.0 | 0.00 | 0.00 | 0.00 | 71 | |
| 20260507131005 | 16 | 185 | 1.6 | 3.2 | 0.00 | 0.00 | 0.00 | 68 | |
| 20260507130504 | 16 | 174 | 8.0 | 9.7 | 0.00 | 0.00 | 0.00 | 70 | |
| 20260507130004 | 16 | 224 | 6.4 | 12.9 | 0.00 | 0.00 | 0.00 | 69 | |
| 20260507125503 | 16 | 122 | 3.2 | 4.8 | 0.00 | 0.00 | 0.00 | 69 | |
| 20260507125000 | 16 | 122 | 3.2 | 4.8 | 0.00 | 0.00 | 0.00 | 69 | |
| 20260507124459 | 16 | 122 | 3.2 | 4.8 | 0.00 | 0.00 | 0.00 | 69 | |
| 20260507123958 | 16 | 122 | 3.2 | 4.8 | 0.00 | 0.00 | 0.00 | 69 | |
| 20260507123457 | 16 | 185 | 4.8 | 6.4 | 0.00 | 0.00 | 0.00 | 69 | |
| 20260507122956 | 16 | 124 | 6.4 | 8.0 | 0.00 | 0.00 | 0.00 | 71 | |
| 20260507122456 | 15 | 100 | 6.4 | 8.0 | 0.00 | 0.00 | 0.00 | 72 | |
| 20260507121955 | 16 | 179 | 3.2 | 6.4 | 0.00 | 0.00 | 0.00 | 69 | |
| 20260507121454 | 16 | 118 | 3.2 | 4.8 | 0.00 | 0.00 | 0.00 | 71 | |
| 20260507120953 | 16 | 118 | 3.2 | 4.8 | 0.00 | 0.00 | 0.00 | 71 | |
| 20260507120453 | 15 | 104 | 6.4 | 6.4 | 0.00 | 0.00 | 0.00 | 69 | |
| 20260507115952 | 16 | 149 | 4.8 | 4.8 | 0.00 | 0.00 | 0.00 | 68 | |
| 20260507115451 | 16 | 184 | 3.2 | 6.4 | 0.00 | 0.00 | 0.00 | 69 | |
| 20260507114950 | 16 | 169 | 6.4 | 8.0 | 0.00 | 0.00 | 0.00 | 69 | |
| 20260507114450 | 15 | 207 | 8.0 | 12.9 | 0.00 | 0.00 | 0.00 | 71 | |
| 20260507113949 | 15 | 207 | 8.0 | 12.9 | 0.00 | 0.00 | 0.00 | 71 | |
| 20260507113448 | 15 | 148 | 4.8 | 8.0 | 0.00 | 0.00 | 0.00 | 70 | |
| 20260507112948 | 15 | 153 | 3.2 | 4.8 | 0.00 | 0.00 | 0.00 | 72 | |
| 20260507112447 | 16 | 161 | 6.4 | 6.4 | 0.00 | 0.00 | 0.00 | 67 | |
| 20260507111946 | 16 | 89 | 4.8 | 9.7 | 0.00 | 0.00 | 0.00 | 70 | |
| 20260507111445 | 15 | 194 | 6.4 | 8.0 | 0.00 | 0.00 | 0.00 | 73 | |
| 20260507110945 | 15 | 170 | 4.8 | 8.0 | 0.00 | 0.00 | 0.00 | 73 | |
| 20260507110444 | 14 | 175 | 4.8 | 8.0 | 0.00 | 0.00 | 0.00 | 76 | |
| 20260507105943 | 14 | 131 | 3.2 | 4.8 | 0.00 | 0.00 | 0.00 | 76 | |
| 20260507105442 | 14 | 154 | 1.6 | 3.2 | 0.00 | 0.00 | 0.00 | 75 | |
| 20260507104942 | 13 | 154 | 3.2 | 6.4 | 0.00 | 0.00 | 0.00 | 77 | |
| 20260507104441 | 15 | 166 | 6.4 | 8.0 | 0.00 | 0.00 | 0.00 | 72 | |
| 20260507103940 | 15 | 188 | 1.6 | 1.6 | 0.00 | 0.00 | 0.00 | 71 | |
| 20260507103439 | 15 | 152 | 4.8 | 4.8 | 0.00 | 0.00 | 0.00 | 71 | |
| 20260507102939 | 15 | 175 | 4.8 | 6.4 | 0.00 | 0.00 | 0.00 | 69 | |
| 20260507102438 | 15 | 175 | 4.8 | 6.4 | 0.00 | 0.00 | 0.00 | 69 | |
| 20260507101937 | 15 | 175 | 4.8 | 6.4 | 0.00 | 0.00 | 0.00 | 69 | |
| 20260507101437 | 15 | 175 | 4.8 | 6.4 | 0.00 | 0.00 | 0.00 | 69 | |
| 20260507100936 | 15 | 175 | 4.8 | 6.4 | 0.00 | 0.00 | 0.00 | 69 | |
| 20260507100435 | 15 | 175 | 4.8 | 6.4 | 0.00 | 0.00 | 0.00 | 69 | |
| 20260507095935 | 15 | 175 | 4.8 | 6.4 | 0.00 | 0.00 | 0.00 | 69 | |
| 20260507095434 | 15 | 175 | 4.8 | 6.4 | 0.00 | 0.00 | 0.00 | 69 | |
| 20260507094933 | 15 | 175 | 4.8 | 6.4 | 0.00 | 0.00 | 0.00 | 69 | |
| 20260507094432 | 15 | 175 | 4.8 | 6.4 | 0.00 | 0.00 | 0.00 | 69 | |
| 20260507093932 | 15 | 175 | 4.8 | 6.4 | 0.00 | 0.00 | 0.00 | 69 | |
| 20260507093431 | 15 | 175 | 4.8 | 6.4 | 0.00 | 0.00 | 0.00 | 69 | |
| 20260507092930 | 15 | 175 | 4.8 | 6.4 | 0.00 | 0.00 | 0.00 | 69 | |
| 20260507092430 | 12 | 198 | 6.4 | 8.0 | 0.00 | 0.00 | 0.00 | 81 | |
| 20260507091929 | 12 | 198 | 6.4 | 8.0 | 0.00 | 0.00 | 0.00 | 81 | |
| 20260507091428 | 12 | 198 | 6.4 | 8.0 | 0.00 | 0.00 | 0.00 | 81 | |
| 20260507090927 | 12 | 198 | 6.4 | 8.0 | 0.00 | 0.00 | 0.00 | 81 | |
| 20260507090426 | 12 | 198 | 6.4 | 8.0 | 0.00 | 0.00 | 0.00 | 81 | |
| 20260507085925 | 12 | 198 | 6.4 | 8.0 | 0.00 | 0.00 | 0.00 | 81 | |
| 20260507085425 | 12 | 198 | 6.4 | 8.0 | 0.00 | 0.00 | 0.00 | 81 | |
| 20260507084924 | 12 | 198 | 6.4 | 8.0 | 0.00 | 0.00 | 0.00 | 81 | |
| 20260507084423 | 12 | 198 | 6.4 | 8.0 | 0.00 | 0.00 | 0.00 | 81 | |
| 20260507083922 | 12 | 198 | 6.4 | 8.0 | 0.00 | 0.00 | 0.00 | 81 | |
| 20260507083422 | 12 | 198 | 6.4 | 8.0 | 0.00 | 0.00 | 0.00 | 81 | |
| 20260507082921 | 12 | 198 | 6.4 | 8.0 | 0.00 | 0.00 | 0.00 | 81 | |
| 20260507082420 | 12 | 198 | 6.4 | 8.0 | 0.00 | 0.00 | 0.00 | 81 | |
| 20260507081920 | 12 | 198 | 6.4 | 8.0 | 0.00 | 0.00 | 0.00 | 81 | |
| 20260507081419 | 12 | 198 | 6.4 | 8.0 | 0.00 | 0.00 | 0.00 | 81 | |
| 20260507080918 | 12 | 198 | 6.4 | 8.0 | 0.00 | 0.00 | 0.00 | 81 | |
| 20260507080417 | 12 | 198 | 6.4 | 8.0 | 0.00 | 0.00 | 0.00 | 81 | |
| 20260507075917 | 12 | 198 | 6.4 | 8.0 | 0.00 | 0.00 | 0.00 | 81 | |
| 20260507075416 | 12 | 198 | 6.4 | 8.0 | 0.00 | 0.00 | 0.00 | 81 | |
| 20260507074915 | 12 | 198 | 6.4 | 8.0 | 0.00 | 0.00 | 0.00 | 81 | |
| 20260507074415 | 12 | 198 | 6.4 | 8.0 | 0.00 | 0.00 | 0.00 | 81 | |
| 20260507073914 | 12 | 198 | 6.4 | 8.0 | 0.00 | 0.00 | 0.00 | 81 | |
| 20260507073414 | 12 | 198 | 6.4 | 8.0 | 0.00 | 0.00 | 0.00 | 81 | |
| 20260507072913 | 12 | 198 | 6.4 | 8.0 | 0.00 | 0.00 | 0.00 | 81 | |
| 20260507072412 | 12 | 198 | 6.4 | 8.0 | 0.00 | 0.00 | 0.00 | 81 | |
| 20260507071911 | 12 | 198 | 6.4 | 8.0 | 0.00 | 0.00 | 0.00 | 81 | |
| 20260507071411 | 12 | 198 | 6.4 | 8.0 | 0.00 | 0.00 | 0.00 | 81 | |
| 20260507070910 | 12 | 198 | 6.4 | 8.0 | 0.00 | 0.00 | 0.00 | 81 | |
| 20260507070409 | 12 | 198 | 6.4 | 8.0 | 0.00 | 0.00 | 0.00 | 81 | |
| 20260507065909 | 12 | 198 | 6.4 | 8.0 | 0.00 | 0.00 | 0.00 | 81 | |
| 20260507065408 | 12 | 198 | 6.4 | 8.0 | 0.00 | 0.00 | 0.00 | 81 | |
| 20260507064907 | 12 | 198 | 6.4 | 8.0 | 0.00 | 0.00 | 0.00 | 81 | |
| 20260507064406 | 12 | 198 | 6.4 | 8.0 | 0.00 | 0.00 | 0.00 | 81 | |
| 20260507063906 | 12 | 198 | 6.4 | 8.0 | 0.00 | 0.00 | 0.00 | 81 | |
| 20260507063405 | 12 | 198 | 6.4 | 8.0 | 0.00 | 0.00 | 0.00 | 81 | |
| 20260507062904 | 12 | 198 | 6.4 | 8.0 | 0.00 | 0.00 | 0.00 | 81 | |
| 20260507062404 | 12 | 198 | 6.4 | 8.0 | 0.00 | 0.00 | 0.00 | 81 | |
| 20260507061903 | 12 | 198 | 6.4 | 8.0 | 0.00 | 0.00 | 0.00 | 81 | |
| 20260507061402 | 12 | 198 | 6.4 | 8.0 | 0.00 | 0.00 | 0.00 | 81 | |
| 20260507060902 | 12 | 198 | 6.4 | 8.0 | 0.00 | 0.00 | 0.00 | 81 | |
| 20260507060401 | 12 | 198 | 6.4 | 8.0 | 0.00 | 0.00 | 0.00 | 81 | |
| 20260507055900 | 12 | 163 | 6.4 | 8.0 | 0.00 | 0.00 | 0.00 | 82 | |
| 20260507055400 | 12 | 163 | 6.4 | 8.0 | 0.00 | 0.00 | 0.00 | 82 | |
| 20260507054859 | 11 | 192 | 4.8 | 8.0 | 0.00 | 0.00 | 0.00 | 86 | |
| 20260507054358 | 11 | 192 | 4.8 | 8.0 | 0.00 | 0.00 | 0.00 | 86 | |
| 20260507053858 | 11 | 192 | 4.8 | 8.0 | 0.00 | 0.00 | 0.00 | 86 | |
| 20260507053357 | 11 | 192 | 4.8 | 8.0 | 0.00 | 0.00 | 0.00 | 86 | |
| 20260507052856 | 11 | 192 | 4.8 | 8.0 | 0.00 | 0.00 | 0.00 | 86 | |
| 20260507052355 | 11 | 192 | 4.8 | 8.0 | 0.00 | 0.00 | 0.00 | 86 | |
| 20260507051855 | 11 | 192 | 4.8 | 8.0 | 0.00 | 0.00 | 0.00 | 86 | |
| 20260507051354 | 11 | 192 | 4.8 | 8.0 | 0.00 | 0.00 | 0.00 | 86 | |
| 20260507050853 | 11 | 192 | 4.8 | 8.0 | 0.00 | 0.00 | 0.00 | 86 | |
| 20260507050353 | 11 | 192 | 4.8 | 8.0 | 0.00 | 0.00 | 0.00 | 86 | |
| 20260507045852 | 11 | 192 | 4.8 | 8.0 | 0.00 | 0.00 | 0.00 | 86 | |
| 20260507045351 | 11 | 192 | 4.8 | 8.0 | 0.00 | 0.00 | 0.00 | 86 | |
| 20260507044851 | 11 | 192 | 4.8 | 8.0 | 0.00 | 0.00 | 0.00 | 86 | |
| 20260507044350 | 11 | 192 | 4.8 | 8.0 | 0.00 | 0.00 | 0.00 | 86 | |
| 20260507043850 | 11 | 192 | 4.8 | 8.0 | 0.00 | 0.00 | 0.00 | 86 | |
| 20260507043349 | 11 | 192 | 4.8 | 8.0 | 0.00 | 0.00 | 0.00 | 86 | |
| 20260507042848 | 11 | 192 | 4.8 | 8.0 | 0.00 | 0.00 | 0.00 | 86 | |
| 20260507042348 | 11 | 170 | 0.0 | 1.6 | 0.00 | 0.00 | 0.00 | 87 | |
| 20260507041847 | 11 | 170 | 0.0 | 1.6 | 0.00 | 0.00 | 0.00 | 87 | |
| 20260507041346 | 11 | 170 | 0.0 | 1.6 | 0.00 | 0.00 | 0.00 | 87 | |
| 20260507040845 | 11 | 170 | 0.0 | 1.6 | 0.00 | 0.00 | 0.00 | 87 | |
| 20260507040345 | 11 | 170 | 0.0 | 1.6 | 0.00 | 0.00 | 0.00 | 87 | |
| 20260507035844 | 11 | 170 | 0.0 | 1.6 | 0.00 | 0.00 | 0.00 | 87 | |
| 20260507035343 | 11 | 170 | 0.0 | 1.6 | 0.00 | 0.00 | 0.00 | 87 | |
| 20260507034843 | 11 | 170 | 0.0 | 1.6 | 0.00 | 0.00 | 0.00 | 87 | |
| 20260507034342 | 10 | 138 | 4.8 | 3.2 | 0.00 | 0.00 | 0.00 | 86 | |
| 20260507033841 | 10 | 152 | 3.2 | 4.8 | 0.00 | 0.00 | 0.00 | 86 | |
| 20260507032840 | 10 | 148 | 1.6 | 3.2 | 0.00 | 0.00 | 0.00 | 87 | |
| 20260507032339 | 10 | 137 | 3.2 | 4.8 | 0.00 | 0.00 | 0.00 | 87 | |
| 20260507031839 | 10 | 89 | 1.6 | 3.2 | 0.00 | 0.00 | 0.00 | 87 | |
| 20260507030837 | 10 | 181 | 1.6 | 1.6 | 0.00 | 0.00 | 0.00 | 88 | |
| 20260507030337 | 10 | 181 | 3.2 | 3.2 | 0.00 | 0.00 | 0.00 | 88 | |
| 20260507025836 | 10 | 147 | 1.6 | 0.0 | 0.00 | 0.00 | 0.00 | 88 | |
| 20260507025335 | 10 | 192 | 3.2 | 3.2 | 0.00 | 0.00 | 0.00 | 88 | |
| 20260507024835 | 10 | 192 | 3.2 | 3.2 | 0.00 | 0.00 | 0.00 | 88 | |
| 20260507024334 | 10 | 184 | 4.8 | 8.0 | 0.00 | 0.00 | 0.00 | 88 | |
| 20260507023833 | 10 | 154 | 6.4 | 9.7 | 0.00 | 0.00 | 0.00 | 87 | |
| 20260507023333 | 10 | 216 | 3.2 | 4.8 | 0.00 | 0.00 | 0.00 | 87 | |
| 20260507022832 | 10 | 198 | 6.4 | 8.0 | 0.00 | 0.00 | 0.00 | 88 | |
| 20260507022331 | 10 | 170 | 3.2 | 4.8 | 0.00 | 0.00 | 0.00 | 88 | |
| 20260507021831 | 10 | 180 | 1.6 | 6.4 | 0.00 | 0.00 | 0.00 | 89 | |
| 20260507021330 | 11 | 175 | 1.6 | 3.2 | 0.00 | 0.00 | 0.00 | 88 | |
| 20260507020829 | 10 | 176 | 1.6 | 3.2 | 0.00 | 0.00 | 0.00 | 88 | |
| 20260507020329 | 10 | 165 | 1.6 | 3.2 | 0.00 | 0.00 | 0.00 | 87 | |
| 20260507015828 | 10 | 170 | 1.6 | 3.2 | 0.00 | 0.00 | 0.00 | 88 | |
| 20260507015327 | 10 | 155 | 6.4 | 8.0 | 0.00 | 0.00 | 0.00 | 88 | |
| 20260507014827 | 11 | 144 | 4.8 | 6.4 | 0.00 | 0.00 | 0.00 | 89 | |
| 20260507014326 | 10 | 137 | 1.6 | 1.6 | 0.00 | 0.00 | 0.00 | 89 | |
| 20260507013825 | 10 | 141 | 1.6 | 4.8 | 0.00 | 0.00 | 0.00 | 90 | |
| 20260507013325 | 10 | 182 | 3.2 | 3.2 | 0.00 | 0.00 | 0.00 | 90 | |
| 20260507012824 | 10 | 176 | 3.2 | 4.8 | 0.00 | 0.00 | 0.00 | 89 | |
| 20260507012323 | 10 | 187 | 3.2 | 4.8 | 0.00 | 0.00 | 0.00 | 89 | |
| 20260507011823 | 10 | 169 | 3.2 | 4.8 | 0.00 | 0.00 | 0.00 | 89 | |
| 20260507011322 | 10 | 132 | 1.6 | 1.6 | 0.00 | 0.00 | 0.00 | 89 | |
| 20260507010821 | 10 | 156 | 1.6 | 4.8 | 0.00 | 0.00 | 0.00 | 89 | |
| 20260507010321 | 10 | 69 | 0.0 | 1.6 | 0.00 | 0.00 | 0.00 | 89 | |
| 20260507005820 | 10 | 121 | 3.2 | 3.2 | 0.00 | 0.00 | 0.00 | 89 | |
| 20260507005319 | 11 | 89 | 0.0 | 1.6 | 0.00 | 0.00 | 0.00 | 89 | |
| 20260507004819 | 10 | 135 | 0.0 | 1.6 | 0.00 | 0.00 | 0.00 | 88 | |
| 20260507004318 | 10 | 118 | 1.6 | 3.2 | 0.00 | 0.00 | 0.00 | 88 | |
| 20260507003817 | 10 | 95 | 3.2 | 3.2 | 0.00 | 0.00 | 0.00 | 88 | |
| 20260507003317 | 11 | 131 | 1.6 | 3.2 | 0.00 | 0.00 | 0.00 | 88 | |
| 20260507002816 | 11 | 174 | 1.6 | 3.2 | 0.00 | 0.00 | 0.00 | 88 | |
| 20260507002315 | 11 | 111 | 1.6 | 4.8 | 0.00 | 0.00 | 0.00 | 88 | |
| 20260507001815 | 11 | 140 | 3.2 | 4.8 | 0.00 | 0.00 | 0.00 | 88 | |
| 20260507001314 | 11 | 163 | 1.6 | 3.2 | 0.00 | 0.00 | 0.00 | 88 | |
| 20260507000813 | 11 | 198 | 1.6 | 3.2 | 0.00 | 0.00 | 0.00 | 89 | |
| 20260507000314 | 11 | 180 | 0.0 | 0.0 | 0.00 | 0.00 | 0.00 | 90 | |
| 20260506235812 | 11 | 139 | 1.6 | 3.2 | 0.00 | 0.00 | 0.00 | 90 | |
| 20260506235312 | 11 | 183 | 3.2 | 4.8 | 0.00 | 0.00 | 0.00 | 89 | |
| 20260506234310 | 11 | 203 | 4.8 | 4.8 | 0.00 | 0.00 | 0.00 | 90 | |
| 20260506233809 | 11 | 152 | 1.6 | 1.6 | 0.00 | 0.00 | 0.00 | 90 | |
| 20260506233309 | 10 | 177 | 1.6 | 3.2 | 0.00 | 0.00 | 0.00 | 89 | |
| 20260506232808 | 10 | 162 | 1.6 | 3.2 | 0.00 | 0.00 | 0.00 | 89 | |
| 20260506232307 | 10 | 156 | 1.6 | 4.8 | 0.00 | 0.00 | 0.00 | 89 | |
| 20260506231806 | 11 | 132 | 0.0 | 0.0 | 0.00 | 0.00 | 0.00 | 89 | |
| 20260506231306 | 11 | 112 | 0.0 | 0.0 | 0.00 | 0.00 | 0.00 | 89 | |
| 20260506230805 | 11 | 178 | 1.6 | 3.2 | 0.00 | 0.00 | 0.00 | 89 | |
| 20260506230304 | 11 | 158 | 6.4 | 4.8 | 0.00 | 0.00 | 0.00 | 89 | |
| 20260506225803 | 11 | 158 | 1.6 | 3.2 | 0.00 | 0.00 | 0.00 | 90 | |
| 20260506225305 | 11 | 135 | 3.2 | 3.2 | 0.00 | 0.00 | 0.00 | 89 | |
| 20260506224802 | 11 | 149 | 1.6 | 1.6 | 0.00 | 0.00 | 0.00 | 91 | |
| 20260506224301 | 11 | 185 | 3.2 | 4.8 | 0.00 | 0.00 | 0.00 | 90 | |
| 20260506223800 | -17 | 0.0 | 0.0 | 0.00 | 0.00 | 0.00 | |||
| 20260506223300 | 11 | 144 | 1.6 | 1.6 | 0.00 | 0.00 | 0.00 | 91 | |
| 20260506222759 | 11 | 140 | 4.8 | 6.4 | 0.00 | 0.00 | 0.00 | 91 | |
| 20260506222258 | 11 | 157 | 1.6 | 3.2 | 0.00 | 0.00 | 0.00 | 90 | |
| 20260506221758 | 11 | 133 | 3.2 | 4.8 | 0.00 | 0.00 | 0.00 | 90 | |
| 20260506221257 | 11 | 109 | 0.0 | 0.0 | 0.00 | 0.00 | 0.00 | 90 | |
| 20260506220756 | 11 | 132 | 1.6 | 1.6 | 0.00 | 0.00 | 0.00 | 89 | |
| 20260506220255 | 11 | 201 | 3.2 | 3.2 | 0.00 | 0.00 | 0.00 | 89 | |
| 20260506215755 | 11 | 138 | 0.0 | 1.6 | 0.00 | 0.00 | 0.00 | 89 | |
| 20260506215254 | 11 | 119 | 1.6 | 1.6 | 0.00 | 0.00 | 0.00 | 89 | |
| 20260506214753 | 11 | 166 | 3.2 | 3.2 | 0.00 | 0.00 | 0.00 | 89 | |
| 20260506214253 | 11 | 155 | 3.2 | 3.2 | 0.00 | 0.00 | 0.00 | 90 | |
| 20260506213752 | 11 | 150 | 1.6 | 3.2 | 0.00 | 0.00 | 0.00 | 90 | |
| 20260506213251 | 11 | 165 | 1.6 | 3.2 | 0.00 | 0.00 | 0.00 | 89 | |
| 20260506212751 | 11 | 148 | 1.6 | 1.6 | 0.00 | 0.00 | 0.00 | 90 |